User: anonymous   Login
Location: Unspecified
(0.0000°N, 0.0000°E)
Time: 13:21:14
(UTC+01:00)
Language:

CZ-4 R/B - Orbit

View from above orbital plane
View from above orbital plane
View from above satellite
View from above satellite

Ground track
Ground track

The orbit data is extracted from the following two-line orbital elements,

1 28059U 03049C   15026.66332954  .00000143  00000-0  46980-4 0  2703
2 28059 098.6770 238.0464 0050610 025.2109 016.6933 14.52270001597024
Epoch (UTC): 26 January 2015 15:55:11
Eccentricity: 0.0050610
inclination: 98.6770°
perigee height: 682 km
apogee height: 754 km
right ascension of ascending node: 238.0464°
argument of perigee: 25.2109°
revolutions per day: 14.52270001
mean anomaly at epoch: 16.6933°
orbit number at epoch: 59702

The dashed part of the orbit path shows where the satellite is in the earth's shadow,  

DLR